SCP
0 0 0 0 0 0 0 0 0 0 0 0 0 0 0 0 0 0 0 0 0 0 0 0 0 0 0 0 0 0 0 0 0 0 0 0 0 0 0 0 0 0 0 0 0 0 0 0 0 0 0 0 0 0
0 0 0 0 0 0 0 0 0 0 0 0 0 0 0 0 0 0 0 0 0 0 0 0 0 0 0 0 0 0 0 0 0 0 0 0 0 0 0 0 0 0 0 0 0 0 0 0 0 0 0 0 0 0
0 0 0 0 0 0 0 0 0 0 0 0 0 0 0 0 0 0 0 0 0 0 0 0 0 0 0 0 0 0 0 0 0 0 0 0 0 0 0 0 0 0 0 0 0 0 0 0 0 0 0 0 0 0
0 0 0 0 0 0 0 0 0 0 0 0 0 0 0 0 0 0 0 0 0 0 0 0 0 0 0 0 0 0 0 0 0 0 0 0 0 0 0 0 0 0 0 0 0 0 0 0 0 0 0 0 0 0
0 0 0 0 0 0 0 0 0 0 0 0 0 0 0 0 0 0 0 0 0 0 0 0 0 0 0 0 0 0 0 0 0 0 0 0 0 0 0 0 0 0 0 0 0 0 0 0 0 0 0 0 0 0
0 0 0 0 0 0 0 0 0 0 0 -0 -0 -0 -0 -0 0 0 0 0 0 0 0 0 0 0 0 0 0 0 0 0 0 0 0 0 0 0 0 0 0 0 0 0 0 0 0 0 0 0 0 0 0 0
0 1 0 1 0 0 0 0 0 0 0 0 0 -0 -0 -0 0 0 0 0 0 0 0 0 0 0 0 0 0 0 0 0 0 0 0 0 0 0 0 0 0 0 0 0 0 0 0 0 0 0 0 0 0 0
1 0 0 0 0 0 0 0 0 0 0 0 0 -0 -0 -0 0 0 0 0 0 0 0 0 0 0 0 0 0 0 0 0 0 0 0 0 0 0 0 0 0 0 0 0 0 0 0 0 0 0 0 0 0 0
0 0 0 0 0 0 0 0 0 0 0 0 0 0 0 0 0 0 0 0 0 0 0 0 0 0 0 0 0 0 0 0 0 0 0 0 0 0 0 0 0 0 0 0 0 0 0 0 0 0 0 0 0 0
0 0 0 0 0 0 0 0 0 0 0 0 0 0 0 0 0 0 0 0 0 0 0 0 0 0 0 0 0 0 0 0 0 0 0 0 0 0 0 0 0 0 0 0 0 0 0 0 0 0 0 0 0 0
0 0 0 0 1 1 1 1 0 0 0 0 0 0 0 0 0 0 0 0 0 0 0 0 0 0 0 0 0 0 0 0 0 0 0 0 0 0 0 0 0 0 0 0 0 0 0 0 0 0 0 0 0 0
0 0 0 0 0 0 0 0 0 0 0 0 0 0 0 0 0 0 0 0 0 0 0 0 0 0 0 0 0 0 0 0 0 0 0 0 0 0 0 0 0 0 0 0 0 0 0 0 0 0 0 0 0 0
0 1 0 0 0 0 0 0 0 0 0 0 0 0 0 0 0 0 0 0 0 0 0 0 0 0 0 0 0 0 0 0 0 0 0 0 0 0 0 0 0 0 0 0 0 0 0 0 0 0 0 0 0 0
0 0 0 0 0 0 0 0 0 0 0 0 0 0 0 0 0 0 0 0 0 0 0 0 0 0 0 0 0 0 0 0 0 0 0 0 0 0 0 0 -0 -0 0 -0 0 0 0 0 0 0 0 0 0 0
0 0 0 0 0 0 0 0 0 0 0 0 0 0 0 0 0 0 0 0 0 0 0 0 0 0 0 0 0 0 0 0 0 -0 -0 -0 -0 0 0 0 0 0 -0 0 -0 -0 0 0 0 0 0 0 0 0
0 0 0 0 0 0 0 0 0 0 0 0 0 0 0 0 0 0 0 0 0 0 0 0 0 0 0 0 0 0 0 -0 -0 0 0 -0 -0 0 0 0 0 -0 -0 -0 -0 0 0 0 0 0 0 0 0 0
0 0 0 0 0 0 0 0 0 0 0 0 0 0 0 0 0 0 0 0 0 0 0 0 0 0 0 0 -0 -0 -0 -0 -0 -0 -0 -0 -0 -0 0 -0 0 -0 -0 0 0 0 0 0 0 0 0 0 0 0
0 0 0 0 0 0 0 0 0 0 0 0 0 0 0 0 0 0 0 0 0 0 0 0 0 0 -0 -0 -0 -0 -0 -0 -0 -0 -0 -0 -0 -0 -0 -0 -0 0 0 -0 0 0 0 0 0 0 0 0 0 0
0 0 0 0 0 0 0 0 0 0 0 0 0 0 0 0 0 0 0 0 0 0 0 0 -0 -0 -0 -0 -0 -0 -0 -0 -0 -0 -0 0 -0 0 -0 0 -0 0 0 0 0 0 0 0 0 0 0 0 0 0
0 0 0 0 0 -0 0 0 0 0 0 0 0 0 0 0 -0 -0 -0 -0 0 0 -0 -0 -0 -0 0 0 0 -0 -0 -0 -0 -0 0 -0 -0 0 0 0 0 0 0 0 0 0 0 0 0 0 0 0 0 0
0 0 0 0 -0 -0 0 0 0 0 0 -0 0 0 -0 -0 -0 -0 -0 -0 -0 -0 -0 -0 -0 -0 -0 -0 -0 -0 0 -0 -0 0 -0 0 -0 0 0 0 0 0 0 0 0 0 0 0 0 0 0 0 0 0
0 0 0 0 -0 0 0 0 0 0 0 -0 -0 -0 -0 -0 -0 -0 -0 -0 -0 -0 -0 -0 -0 -0 0 0 -0 0 0 -0 -0 0 -0 -0 -0 -0 -0 0 0 -0 0 0 0 0 0 0 0 0 0 0 0 0
0 0 0 0 0 0 -0 0 -0 -0 -0 -0 -0 -0 -0 -0 -0 -0 -0 -0 -0 -0 -0 0 -0 -0 0 -0 -0 -0 -0 -0 -0 -0 -0 -0 -0 0 0 0 0 0 0 0 0 0 0 0 0 0 0 0 0 -0
0 0 0 -0 -0 -0 0 -0 -0 -0 -0 -0 -0 -0 -0 -0 -0 -0 -0 0 0 0 0 -0 -0 -0 0 0 0 0 -0 0 -0 -0 -0 -0 -0 -0 0 0 0 0 0 0 0 0 0 0 0 0 0 -0 -0 -0
0 0 -0 -0 -0 -0 -0 -0 0 0 0 0 0 0 0 0 0 0 0 0 0 0 0 0 -0 -0 -0 0 0 0 0 0 0 -0 -0 0 0 0 0 0 0 0 0 0 0 0 0 0 0 0 0 0 -0 -0
-0 -0 -0 -0 -0 -0 0 0 0 0 0 0 0 0 0 0 0 0 0 0 0 0 -0 -0 0 0 -0 -0 -0 0 0 0 0 0 0 0 0 0 -0 0 0 0 0 0 0 0 0 0 -0 -0 -0 0 0 0
-0 -0 0 0 0 0 0 0 0 0 0 0 0 0 0 0 0 0 0 0 0 0 0 -0 -0 -0 -0 -0 0 0 0 0 0 0 0 0 0 0 0 0 0 0 0 0 0 0 -0 -0 0 0 0 0 0 0
-0 0 0 0 0 0 0 -0 -0 0 0 0 0 0 0 0 0 0 0 0 0 -0 -0 -0 -0 0 0 0 0 0 0 0 0 0 0 0 0 0 0 0 0 0 0 0 0 0 0 0 0 0 0 0 0 0
-0 0 0 0 0 -0 -0 -0 -0 0 0 0 0 0 0 0 0 0 0 0 0 0 0 -0 -0 0 0 0 0 0 0 0 0 0 0 0 0 0 0 0 0 0 0 0 0 0 0 0 0 0 0 0 0 0
0 0 0 0 -0 -0 0 0 -0 0 0 0 0 0 0 0 0 0 0 0 0 0 0 0 0 0 0 0 0 0 0 0 0 0 0 0 0 0 0 0 0 0 0 0 0 0 0 0 0 0 0 0 0 0
0 0 0 0 -0 -0 -0 0 0 -0 0 0 0 0 0 0 0 0 0 0 0 0 0 0 0 0 0 0 0 0 0 0 0 0 0 0 0 0 0 0 0 0 0 0 0 0 0 0 0 0 0 0 0 0
0 0 0 -0 -0 -0 0 0 0 0 0 0 0 0 0 0 0 0 0 0 0 0 0 0 0 0 0 0 0 0 0 0 0 0 0 0 0 0 0 0 0 0 0 0 0 0 0 0 0 0 0 0 0 0
0 0 0 0 0 0 -0 0 0 0 0 0 0 0 0 0 0 0 0 0 0 0 0 0 0 0 0 0 0 0 0 0 0 0 0 0 0 0 0 0 0 0 0 0 0 0 0 0 0 0 0 0 -0 -0
Wind_Speed_500mb
64 60 58 57 59 55 51 48 44 43 43 42 42 43 47 55 46 44 62 59 60 41 56 53 58 69 51 49 25 19 10 6 5 13 13 12 12 17 25 34 17 25 20 13 8 18 55 26 24 44 42 66 25 43
67 65 65 67 63 65 61 57 52 49 50 50 53 59 56 57 57 54 68 65 66 74 66 46 53 86 92 83 60 41 51 29 37 12 10 6 11 9 26 26 19 39 35 30 28 19 15 27 55 64 72 72 45 39
72 68 68 69 63 54 53 52 54 54 54 57 60 63 63 66 69 65 77 77 78 74 83 85 97 113 111 99 90 61 41 66 39 50 19 14 18 11 23 32 49 19 43 24 44 54 56 76 74 86 67 77 84 70
77 73 69 67 68 65 63 55 52 53 54 58 63 66 69 73 75 75 84 91 72 55 21 54 71 85 105 97 109 119 113 77 70 70 41 24 29 38 35 36 42 43 28 43 42 54 57 107 80 78 85 82 76 80
77 78 75 73 67 67 63 61 59 58 57 58 59 62 66 75 72 70 80 96 95 74 33 31 54 80 94 93 101 100 103 105 96 53 19 27 45 29 25 21 33 53 51 36 39 55 53 96 86 95 92 98 105 104
90 88 82 79 76 73 71 68 66 64 63 63 66 68 68 70 73 76 80 102 99 100 62 32 61 87 102 95 70 67 86 91 90 82 41 69 93 46 25 44 42 73 82 93 59 105 99 112 93 82 85 86 88 104
103 98 96 95 88 80 79 77 74 70 70 69 72 72 77 78 81 83 43 28 47 64 57 19 16 60 83 99 88 84 82 65 76 83 66 73 76 41 28 40 34 81 106 123 127 114 97 114 107 92 88 85 74 80
116 106 102 106 109 89 89 88 83 77 73 73 74 77 80 84 89 102 105 100 101 69 32 8 7 20 87 76 44 67 57 60 47 58 66 32 47 42 32 35 90 98 94 97 110 105 112 133 99 91 89 91 88 89
116 112 105 109 86 94 96 93 86 77 74 75 74 77 88 94 91 90 95 94 95 95 16 12 22 28 41 60 64 28 28 12 31 21 33 49 40 39 54 64 58 69 87 112 127 118 110 101 107 109 99 97 93 95
89 87 76 77 81 80 92 94 88 70 70 70 69 76 60 85 102 101 88 55 39 58 29 13 19 6 15 22 8 3 15 10 9 15 14 14 32 87 108 117 107 109 105 112 107 113 99 94 103 99 85 95 102 109
96 107 97 96 84 82 76 86 72 62 66 64 58 55 88 94 96 57 30 28 20 5 16 29 53 29 45 8 9 20 5 4 5 14 16 23 34 42 90 87 92 96 107 118 126 117 113 101 95 84 86 103 109 110
104 95 88 86 84 84 82 80 79 74 74 72 58 64 38 21 12 9 5 4 9 16 15 10 19 35 22 32 8 8 10 3 13 11 20 41 32 70 81 94 99 109 122 136 143 125 106 93 95 95 98 97 106 102
118 117 109 108 100 100 98 93 85 73 66 66 59 34 19 13 14 13 15 5 3 3 21 24 9 27 28 35 4 6 11 16 3 26 42 39 54 100 91 90 97 115 127 126 123 115 111 107 99 104 104 100 99 94
89 90 111 128 120 108 107 75 64 59 56 31 29 27 19 11 11 8 9 11 19 22 27 43 16 11 17 4 7 5 11 12 41 48 53 33 69 96 99 99 101 123 106 99 106 110 111 107 101 104 113 89 85 77
91 73 30 63 102 63 61 62 58 62 69 30 21 14 13 13 24 47 61 45 50 50 32 5 5 6 6 4 5 5 10 29 33 45 41 53 69 83 87 95 108 107 91 95 106 97 95 94 90 84 82 87 70 70
51 53 49 47 54 60 58 63 70 75 67 43 27 4 5 15 9 13 44 40 59 41 19 8 7 4 12 8 12 14 21 47 43 37 59 68 68 81 86 94 96 92 91 95 94 85 80 76 76 80 73 66 65 78
53 46 56 52 56 61 66 71 71 53 30 25 9 32 41 34 37 41 54 53 44 22 8 6 9 22 8 16 35 25 39 34 25 54 63 72 84 96 95 97 92 88 90 84 79 73 65 66 70 71 70 74 80 83
47 57 50 50 50 55 63 68 58 33 19 17 8 19 31 23 15 23 28 36 34 37 23 15 9 12 19 40 37 32 35 62 72 76 84 96 97 103 104 106 104 89 88 76 64 60 68 78 81 76 79 85 85 82
49 52 49 40 42 45 36 37 54 12 11 17 28 37 35 32 36 51 54 55 65 62 23 11 19 25 30 29 34 50 74 78 75 84 90 102 101 103 88 81 55 42 37 42 59 72 74 77 75 86 94 92 82 75
42 42 39 38 31 19 11 12 22 10 8 9 19 23 30 26 43 53 61 67 55 31 17 18 37 36 48 79 85 84 84 82 75 75 83 89 87 89 79 73 64 52 53 61 66 72 74 71 82 100 99 88 77 83
40 40 35 29 34 23 9 4 7 8 11 12 20 32 18 35 43 39 43 44 34 22 31 62 75 84 80 76 82 89 102 96 95 84 82 79 59 57 54 41 48 57 64 63 67 70 75 88 90 87 91 75 80 93
36 30 30 31 13 18 15 16 8 16 9 5 12 14 5 3 4 15 32 6 3 10 14 35 61 80 87 84 75 87 105 111 108 94 86 65 52 45 44 46 51 53 54 62 75 81 84 87 83 77 74 86 90 92
26 23 14 12 9 3 3 14 9 15 5 7 9 5 6 4 5 14 3 4 3 21 47 54 63 65 70 61 52 52 62 72 69 64 57 51 47 48 49 51 55 61 64 61 71 81 86 83 82 85 89 94 91 88
21 5 6 11 15 6 7 1 5 1 0 3 7 6 3 5 10 5 3 1 12 48 48 52 46 48 18 16 14 9 18 36 58 50 52 63 66 60 60 60 60 64 72 79 80 89 91 88 84 86 87 87 87 88
5 6 6 6 4 6 6 6 8 6 9 10 10 7 4 11 5 2 3 7 36 50 58 56 48 38 36 33 16 20 12 27 45 60 45 58 70 68 66 70 76 82 82 90 88 86 83 80 77 77 79 82 87 84
5 5 1 2 3 7 3 5 10 10 7 10 9 4 4 5 5 2 5 22 28 45 61 58 59 53 39 31 32 30 31 38 50 73 66 65 64 78 90 92 85 73 73 72 71 72 72 69 68 72 77 79 78 78
7 5 5 7 6 5 4 2 7 5 5 5 6 8 1 6 4 4 17 25 41 49 41 34 34 35 38 37 33 34 32 48 74 74 66 69 72 75 80 77 74 67 61 56 55 54 60 65 69 72 77 78 75 73
5 8 1 4 9 14 4 6 7 6 5 8 1 11 6 8 5 18 17 40 39 33 30 25 21 21 34 37 42 57 72 78 77 76 74 74 71 68 66 67 66 64 57 51 49 50 54 60 66 69 70 71 68 66
4 8 1 6 6 8 7 6 4 2 8 4 4 6 5 6 17 26 32 32 31 34 37 40 33 36 47 57 53 46 45 58 68 82 82 75 71 66 63 60 58 55 53 50 45 39 42 46 52 55 57 61 64 65
5 8 5 7 8 8 5 6 9 19 23 19 21 29 25 23 42 53 42 37 40 42 41 45 47 51 56 64 70 67 64 61 58 62 67 63 63 58 53 52 52 50 48 48 50 51 47 45 48 51 58 63 66 68
7 3 9 6 7 8 15 27 36 41 33 31 32 21 16 13 17 48 59 48 44 43 45 53 59 59 60 59 60 60 62 61 60 57 55 55 53 49 46 43 39 36 34 31 33 38 45 51 56 61 62 63 64 64
6 6 6 8 4 11 9 8 6 9 9 8 8 7 7 6 9 25 59 56 51 52 52 49 53 57 56 53 51 51 47 43 46 45 44 41 40 39 37 35 34 31 29 29 30 34 38 43 50 53 55 58 59 60
6 9 10 9 5 4 5 7 5 8 11 7 10 9 9 8 8 27 35 55 51 50 44 40 41 42 45 45 45 43 42 41 40 36 33 32 31 30 29 28 28 28 27 28 29 31 35 38 43 48 51 53 54 53
Wind_Direction_500mb
243 245 245 244 246 246 247 247 251 255 258 259 258 254 258 256 260 256 254 252 256 261 264 246 247 236 243 228 229 177 128 138 153 208 206 202 226 213 230 239 190 182 175 206 204 220 249 144 164 205 236 274 237 220
245 243 246 245 245 244 244 245 252 257 261 264 267 268 265 261 259 261 269 264 258 249 254 260 261 256 245 239 251 230 230 187 194 203 205 213 216 202 213 235 221 232 217 229 207 230 254 222 237 240 242 258 254 246
243 244 247 250 249 244 250 252 256 259 264 268 270 270 271 266 261 259 260 264 264 257 247 253 250 254 254 247 243 243 245 232 217 220 196 209 233 186 223 229 250 226 229 227 246 249 255 264 259 252 249 247 253 258
244 245 249 248 247 241 245 250 257 261 266 270 271 271 272 271 265 260 258 258 252 256 259 243 250 250 255 255 248 241 243 243 241 221 222 238 247 219 240 246 239 234 211 230 252 249 261 263 254 252 251 249 253 255
243 244 244 244 247 247 246 253 255 258 265 270 272 274 277 270 267 268 267 256 257 237 263 273 249 246 245 246 244 244 237 241 242 240 224 239 244 247 232 237 233 231 237 234 240 248 237 256 264 255 250 250 253 254
239 237 241 242 243 244 243 247 251 254 259 267 271 273 273 272 268 272 273 269 257 251 254 249 267 254 257 249 246 239 235 237 240 244 247 249 238 226 244 241 232 235 242 246 252 254 253 257 260 259 256 256 258 255
241 240 240 240 240 243 242 244 247 253 257 265 272 272 271 269 262 255 249 280 249 239 236 249 249 245 248 242 236 232 240 234 238 243 245 249 248 238 245 247 241 243 245 248 251 255 258 254 254 255 253 255 256 258
242 242 240 241 237 244 243 243 245 250 256 265 270 274 273 270 264 263 258 260 260 258 250 269 266 232 224 223 228 232 229 232 234 244 252 255 269 254 245 241 245 246 248 252 255 253 249 257 260 258 255 253 254 253
239 236 234 239 245 242 243 242 244 246 254 264 273 280 279 270 259 266 266 262 259 232 235 222 258 258 202 221 228 212 214 230 235 232 237 240 248 249 256 257 242 243 239 242 250 256 251 250 254 254 251 252 247 251
238 236 235 242 245 248 241 244 238 241 256 268 277 282 273 258 269 266 268 239 236 243 238 204 219 266 229 190 202 149 187 214 217 226 215 253 257 250 258 255 256 254 248 247 248 254 257 248 246 248 239 243 248 250
248 243 238 240 237 245 240 228 229 241 256 262 269 262 269 278 276 243 212 190 199 197 209 233 238 233 215 211 222 214 215 244 197 243 234 257 265 272 268 257 254 253 252 252 251 252 258 255 249 245 237 244 246 246
248 244 241 237 240 246 229 230 231 235 244 251 258 270 256 256 205 221 198 111 179 198 174 159 209 198 212 218 171 213 191 117 235 209 246 260 269 278 274 268 255 246 244 249 252 253 255 254 247 241 243 251 251 253
244 248 243 243 243 237 233 230 225 235 248 254 249 243 228 251 229 189 175 198 168 213 167 167 203 195 207 216 210 168 188 230 222 243 253 258 268 268 270 260 266 259 253 253 256 255 254 251 248 237 238 246 249 244
241 246 241 238 230 236 224 212 221 233 234 234 233 222 195 197 209 185 187 173 202 208 216 206 205 186 208 152 201 168 236 235 254 256 260 266 265 267 259 259 259 266 265 258 259 253 248 243 238 237 239 228 233 233
249 232 229 212 206 204 207 216 230 234 236 243 231 214 197 190 191 197 198 198 207 214 206 168 248 201 265 311 194 246 270 252 256 261 262 262 261 257 253 254 255 259 268 262 259 252 242 236 234 226 218 223 224 225
192 191 192 190 204 213 223 228 234 240 238 243 228 195 159 172 215 212 200 200 209 206 197 211 196 204 217 211 206 236 245 251 257 259 265 280 276 264 253 252 257 264 265 263 260 252 240 226 223 218 214 217 219 206
190 195 197 214 219 227 230 230 239 232 243 228 214 206 195 207 210 206 205 211 207 191 195 158 164 217 209 242 255 264 259 265 274 279 273 270 275 275 271 272 270 264 266 263 264 251 226 211 206 200 192 191 197 193
195 204 209 214 223 231 236 239 238 230 209 192 148 150 212 244 202 206 219 227 217 210 213 220 229 240 249 264 263 266 266 269 273 277 278 279 277 274 271 270 272 272 271 268 251 214 197 201 192 186 192 183 177 172
206 212 213 223 231 246 233 220 211 204 188 168 177 182 191 203 228 251 249 248 241 236 228 206 240 243 249 249 257 259 262 265 267 270 270 272 273 271 269 268 271 263 240 216 213 196 188 187 193 186 170 160 165 173
212 217 231 238 249 259 207 191 179 164 164 187 211 227 231 223 236 238 244 246 240 239 233 237 248 251 255 259 258 258 262 266 271 275 275 275 276 279 271 260 248 236 214 191 178 174 169 170 167 163 158 164 166 168
213 218 234 256 272 268 272 247 123 141 147 174 197 207 225 232 233 240 250 252 243 242 256 258 267 275 277 275 265 265 262 260 258 260 271 283 272 254 247 218 214 193 177 166 162 158 163 163 160 158 156 161 169 160
215 224 250 262 255 217 191 185 139 156 177 215 189 216 198 248 227 253 276 202 296 302 309 307 301 298 291 282 271 263 265 259 257 262 265 254 219 205 203 197 185 171 162 159 161 156 156 156 157 160 165 158 157 156
215 239 260 227 203 217 238 173 158 191 161 231 177 197 242 227 230 278 105 97 2 325 316 310 305 294 287 278 276 281 262 248 235 230 217 206 204 193 175 174 176 165 154 149 158 160 158 158 156 154 154 153 151 149
218 227 226 221 189 216 158 346 209 338 125 195 169 235 248 188 141 81 228 264 322 341 342 338 340 335 330 297 293 300 147 175 179 177 179 177 161 149 161 157 158 155 151 150 152 149 146 145 147 148 148 149 151 151
179 226 235 202 162 111 171 191 204 197 222 195 188 236 195 150 117 103 300 327 335 342 341 349 359 3 337 337 18 53 127 149 153 148 149 160 142 138 139 144 144 142 143 142 140 137 138 143 147 149 152 155 155 155
197 11 25 249 290 139 217 236 200 203 186 177 211 350 127 101 86 4 340 319 330 334 338 345 342 346 2 9 9 47 92 117 137 126 125 127 134 139 136 131 127 130 136 134 135 139 142 147 151 155 157 159 161 160
156 192 347 25 5 318 281 278 4 17 55 17 9 339 346 71 43 2 329 352 334 334 337 342 344 342 348 23 60 79 97 116 113 114 122 128 129 128 122 122 123 127 134 136 138 141 144 151 157 160 162 165 167 168
82 13 235 35 69 28 7 61 35 23 347 346 246 37 71 16 357 328 338 345 345 353 0 9 19 34 45 51 81 97 100 99 97 100 106 108 112 115 118 119 123 125 131 135 138 144 152 157 160 164 167 165 164 165
86 352 110 70 87 59 46 38 26 21 331 302 73 95 105 66 18 6 0 5 17 24 35 48 57 73 75 67 75 90 105 109 112 108 105 104 109 109 116 122 124 128 131 133 133 140 147 153 158 161 162 161 160 161
37 21 106 69 46 40 37 70 82 74 75 88 103 109 97 86 51 37 32 35 38 36 41 48 50 60 60 71 75 77 85 92 98 103 107 107 111 115 116 120 122 124 128 132 135 138 140 147 150 155 160 161 162 165
344 69 83 61 94 130 122 107 96 85 79 75 89 90 120 142 53 30 29 36 40 43 53 55 57 56 61 63 67 73 73 79 85 89 95 101 106 111 113 114 114 117 122 129 137 145 150 156 160 162 164 166 166 168
36 65 118 115 138 160 171 164 117 93 96 82 68 80 100 110 54 23 15 26 37 42 43 46 49 51 56 58 62 65 71 78 81 85 91 95 100 102 104 107 109 114 122 130 139 148 154 160 161 164 165 168 169 171
65 50 65 103 106 135 153 156 105 99 75 74 52 50 48 58 76 19 17 19 23 28 31 42 50 54 55 58 63 69 74 78 83 85 87 93 99 105 110 115 121 126 131 137 142 149 155 161 164 165 167 169 171 172
Wind_Speed_850mb
64 60 58 57 59 55 51 48 44 43 43 42 42 43 47 55 46 44 62 59 60 41 56 53 58 69 51 49 25 19 10 6 5 13 13 12 12 17 25 34 17 25 20 13 8 18 55 26 24 44 42 66 25 43
67 65 65 67 63 65 61 57 52 49 50 50 53 59 56 57 57 54 68 65 66 74 66 46 53 86 92 83 60 41 51 29 37 12 10 6 11 9 26 26 19 39 35 30 28 19 15 27 55 64 72 72 45 39
72 68 68 69 63 54 53 52 54 54 54 57 60 63 63 66 69 65 77 77 78 74 83 85 97 113 111 99 90 61 41 66 39 50 19 14 18 11 23 32 49 19 43 24 44 54 56 76 74 86 67 77 84 70
77 73 69 67 68 65 63 55 52 53 54 58 63 66 69 73 75 75 84 91 72 55 21 54 71 85 105 97 109 119 113 77 70 70 41 24 29 38 35 36 42 43 28 43 42 54 57 107 80 78 85 82 76 80
77 78 75 73 67 67 63 61 59 58 57 58 59 62 66 75 72 70 80 96 95 74 33 31 54 80 94 93 101 100 103 105 96 53 19 27 45 29 25 21 33 53 51 36 39 55 53 96 86 95 92 98 105 104
90 88 82 79 76 73 71 68 66 64 63 63 66 68 68 70 73 76 80 102 99 100 62 32 61 87 102 95 70 67 86 91 90 82 41 69 93 46 25 44 42 73 82 93 59 105 99 112 93 82 85 86 88 104
103 98 96 95 88 80 79 77 74 70 70 69 72 72 77 78 81 83 43 28 47 64 57 19 16 60 83 99 88 84 82 65 76 83 66 73 76 41 28 40 34 81 106 123 127 114 97 114 107 92 88 85 74 80
116 106 102 106 109 89 89 88 83 77 73 73 74 77 80 84 89 102 105 100 101 69 32 8 7 20 87 76 44 67 57 60 47 58 66 32 47 42 32 35 90 98 94 97 110 105 112 133 99 91 89 91 88 89
116 112 105 109 86 94 96 93 86 77 74 75 74 77 88 94 91 90 95 94 95 95 16 12 22 28 41 60 64 28 28 12 31 21 33 49 40 39 54 64 58 69 87 112 127 118 110 101 107 109 99 97 93 95
89 87 76 77 81 80 92 94 88 70 70 70 69 76 60 85 102 101 88 55 39 58 29 13 19 6 15 22 8 3 15 10 9 15 14 14 32 87 108 117 107 109 105 112 107 113 99 94 103 99 85 95 102 109
96 107 97 96 84 82 76 86 72 62 66 64 58 55 88 94 96 57 30 28 20 5 16 29 53 29 45 8 9 20 5 4 5 14 16 23 34 42 90 87 92 96 107 118 126 117 113 101 95 84 86 103 109 110
104 95 88 86 84 84 82 80 79 74 74 72 58 64 38 21 12 9 5 4 9 16 15 10 19 35 22 32 8 8 10 3 13 11 20 41 32 70 81 94 99 109 122 136 143 125 106 93 95 95 98 97 106 102
118 117 109 108 100 100 98 93 85 73 66 66 59 34 19 13 14 13 15 5 3 3 21 24 9 27 28 35 4 6 11 16 3 26 42 39 54 100 91 90 97 115 127 126 123 115 111 107 99 104 104 100 99 94
89 90 111 128 120 108 107 75 64 59 56 31 29 27 19 11 11 8 9 11 19 22 27 43 16 11 17 4 7 5 11 12 41 48 53 33 69 96 99 99 101 123 106 99 106 110 111 107 101 104 113 89 85 77
91 73 30 63 102 63 61 62 58 62 69 30 21 14 13 13 24 47 61 45 50 50 32 5 5 6 6 4 5 5 10 29 33 45 41 53 69 83 87 95 108 107 91 95 106 97 95 94 90 84 82 87 70 70
51 53 49 47 54 60 58 63 70 75 67 43 27 4 5 15 9 13 44 40 59 41 19 8 7 4 12 8 12 14 21 47 43 37 59 68 68 81 86 94 96 92 91 95 94 85 80 76 76 80 73 66 65 78
53 46 56 52 56 61 66 71 71 53 30 25 9 32 41 34 37 41 54 53 44 22 8 6 9 22 8 16 35 25 39 34 25 54 63 72 84 96 95 97 92 88 90 84 79 73 65 66 70 71 70 74 80 83
47 57 50 50 50 55 63 68 58 33 19 17 8 19 31 23 15 23 28 36 34 37 23 15 9 12 19 40 37 32 35 62 72 76 84 96 97 103 104 106 104 89 88 76 64 60 68 78 81 76 79 85 85 82
49 52 49 40 42 45 36 37 54 12 11 17 28 37 35 32 36 51 54 55 65 62 23 11 19 25 30 29 34 50 74 78 75 84 90 102 101 103 88 81 55 42 37 42 59 72 74 77 75 86 94 92 82 75
42 42 39 38 31 19 11 12 22 10 8 9 19 23 30 26 43 53 61 67 55 31 17 18 37 36 48 79 85 84 84 82 75 75 83 89 87 89 79 73 64 52 53 61 66 72 74 71 82 100 99 88 77 83
40 40 35 29 34 23 9 4 7 8 11 12 20 32 18 35 43 39 43 44 34 22 31 62 75 84 80 76 82 89 102 96 95 84 82 79 59 57 54 41 48 57 64 63 67 70 75 88 90 87 91 75 80 93
36 30 30 31 13 18 15 16 8 16 9 5 12 14 5 3 4 15 32 6 3 10 14 35 61 80 87 84 75 87 105 111 108 94 86 65 52 45 44 46 51 53 54 62 75 81 84 87 83 77 74 86 90 92
26 23 14 12 9 3 3 14 9 15 5 7 9 5 6 4 5 14 3 4 3 21 47 54 63 65 70 61 52 52 62 72 69 64 57 51 47 48 49 51 55 61 64 61 71 81 86 83 82 85 89 94 91 88
21 5 6 11 15 6 7 1 5 1 0 3 7 6 3 5 10 5 3 1 12 48 48 52 46 48 18 16 14 9 18 36 58 50 52 63 66 60 60 60 60 64 72 79 80 89 91 88 84 86 87 87 87 88
5 6 6 6 4 6 6 6 8 6 9 10 10 7 4 11 5 2 3 7 36 50 58 56 48 38 36 33 16 20 12 27 45 60 45 58 70 68 66 70 76 82 82 90 88 86 83 80 77 77 79 82 87 84
5 5 1 2 3 7 3 5 10 10 7 10 9 4 4 5 5 2 5 22 28 45 61 58 59 53 39 31 32 30 31 38 50 73 66 65 64 78 90 92 85 73 73 72 71 72 72 69 68 72 77 79 78 78
7 5 5 7 6 5 4 2 7 5 5 5 6 8 1 6 4 4 17 25 41 49 41 34 34 35 38 37 33 34 32 48 74 74 66 69 72 75 80 77 74 67 61 56 55 54 60 65 69 72 77 78 75 73
5 8 1 4 9 14 4 6 7 6 5 8 1 11 6 8 5 18 17 40 39 33 30 25 21 21 34 37 42 57 72 78 77 76 74 74 71 68 66 67 66 64 57 51 49 50 54 60 66 69 70 71 68 66
4 8 1 6 6 8 7 6 4 2 8 4 4 6 5 6 17 26 32 32 31 34 37 40 33 36 47 57 53 46 45 58 68 82 82 75 71 66 63 60 58 55 53 50 45 39 42 46 52 55 57 61 64 65
5 8 5 7 8 8 5 6 9 19 23 19 21 29 25 23 42 53 42 37 40 42 41 45 47 51 56 64 70 67 64 61 58 62 67 63 63 58 53 52 52 50 48 48 50 51 47 45 48 51 58 63 66 68
7 3 9 6 7 8 15 27 36 41 33 31 32 21 16 13 17 48 59 48 44 43 45 53 59 59 60 59 60 60 62 61 60 57 55 55 53 49 46 43 39 36 34 31 33 38 45 51 56 61 62 63 64 64
6 6 6 8 4 11 9 8 6 9 9 8 8 7 7 6 9 25 59 56 51 52 52 49 53 57 56 53 51 51 47 43 46 45 44 41 40 39 37 35 34 31 29 29 30 34 38 43 50 53 55 58 59 60
6 9 10 9 5 4 5 7 5 8 11 7 10 9 9 8 8 27 35 55 51 50 44 40 41 42 45 45 45 43 42 41 40 36 33 32 31 30 29 28 28 28 27 28 29 31 35 38 43 48 51 53 54 53
Wind_Direction_850mb
243 245 245 244 246 246 247 247 251 255 258 259 258 254 258 256 260 256 254 252 256 261 264 246 247 236 243 228 229 177 128 138 153 208 206 202 226 213 230 239 190 182 175 206 204 220 249 144 164 205 236 274 237 220
245 243 246 245 245 244 244 245 252 257 261 264 267 268 265 261 259 261 269 264 258 249 254 260 261 256 245 239 251 230 230 187 194 203 205 213 216 202 213 235 221 232 217 229 207 230 254 222 237 240 242 258 254 246
243 244 247 250 249 244 250 252 256 259 264 268 270 270 271 266 261 259 260 264 264 257 247 253 250 254 254 247 243 243 245 232 217 220 196 209 233 186 223 229 250 226 229 227 246 249 255 264 259 252 249 247 253 258
244 245 249 248 247 241 245 250 257 261 266 270 271 271 272 271 265 260 258 258 252 256 259 243 250 250 255 255 248 241 243 243 241 221 222 238 247 219 240 246 239 234 211 230 252 249 261 263 254 252 251 249 253 255
243 244 244 244 247 247 246 253 255 258 265 270 272 274 277 270 267 268 267 256 257 237 263 273 249 246 245 246 244 244 237 241 242 240 224 239 244 247 232 237 233 231 237 234 240 248 237 256 264 255 250 250 253 254
239 237 241 242 243 244 243 247 251 254 259 267 271 273 273 272 268 272 273 269 257 251 254 249 267 254 257 249 246 239 235 237 240 244 247 249 238 226 244 241 232 235 242 246 252 254 253 257 260 259 256 256 258 255
241 240 240 240 240 243 242 244 247 253 257 265 272 272 271 269 262 255 249 280 249 239 236 249 249 245 248 242 236 232 240 234 238 243 245 249 248 238 245 247 241 243 245 248 251 255 258 254 254 255 253 255 256 258
242 242 240 241 237 244 243 243 245 250 256 265 270 274 273 270 264 263 258 260 260 258 250 269 266 232 224 223 228 232 229 232 234 244 252 255 269 254 245 241 245 246 248 252 255 253 249 257 260 258 255 253 254 253
239 236 234 239 245 242 243 242 244 246 254 264 273 280 279 270 259 266 266 262 259 232 235 222 258 258 202 221 228 212 214 230 235 232 237 240 248 249 256 257 242 243 239 242 250 256 251 250 254 254 251 252 247 251
238 236 235 242 245 248 241 244 238 241 256 268 277 282 273 258 269 266 268 239 236 243 238 204 219 266 229 190 202 149 187 214 217 226 215 253 257 250 258 255 256 254 248 247 248 254 257 248 246 248 239 243 248 250
248 243 238 240 237 245 240 228 229 241 256 262 269 262 269 278 276 243 212 190 199 197 209 233 238 233 215 211 222 214 215 244 197 243 234 257 265 272 268 257 254 253 252 252 251 252 258 255 249 245 237 244 246 246
248 244 241 237 240 246 229 230 231 235 244 251 258 270 256 256 205 221 198 111 179 198 174 159 209 198 212 218 171 213 191 117 235 209 246 260 269 278 274 268 255 246 244 249 252 253 255 254 247 241 243 251 251 253
244 248 243 243 243 237 233 230 225 235 248 254 249 243 228 251 229 189 175 198 168 213 167 167 203 195 207 216 210 168 188 230 222 243 253 258 268 268 270 260 266 259 253 253 256 255 254 251 248 237 238 246 249 244
241 246 241 238 230 236 224 212 221 233 234 234 233 222 195 197 209 185 187 173 202 208 216 206 205 186 208 152 201 168 236 235 254 256 260 266 265 267 259 259 259 266 265 258 259 253 248 243 238 237 239 228 233 233
249 232 229 212 206 204 207 216 230 234 236 243 231 214 197 190 191 197 198 198 207 214 206 168 248 201 265 311 194 246 270 252 256 261 262 262 261 257 253 254 255 259 268 262 259 252 242 236 234 226 218 223 224 225
192 191 192 190 204 213 223 228 234 240 238 243 228 195 159 172 215 212 200 200 209 206 197 211 196 204 217 211 206 236 245 251 257 259 265 280 276 264 253 252 257 264 265 263 260 252 240 226 223 218 214 217 219 206
190 195 197 214 219 227 230 230 239 232 243 228 214 206 195 207 210 206 205 211 207 191 195 158 164 217 209 242 255 264 259 265 274 279 273 270 275 275 271 272 270 264 266 263 264 251 226 211 206 200 192 191 197 193
195 204 209 214 223 231 236 239 238 230 209 192 148 150 212 244 202 206 219 227 217 210 213 220 229 240 249 264 263 266 266 269 273 277 278 279 277 274 271 270 272 272 271 268 251 214 197 201 192 186 192 183 177 172
206 212 213 223 231 246 233 220 211 204 188 168 177 182 191 203 228 251 249 248 241 236 228 206 240 243 249 249 257 259 262 265 267 270 270 272 273 271 269 268 271 263 240 216 213 196 188 187 193 186 170 160 165 173
212 217 231 238 249 259 207 191 179 164 164 187 211 227 231 223 236 238 244 246 240 239 233 237 248 251 255 259 258 258 262 266 271 275 275 275 276 279 271 260 248 236 214 191 178 174 169 170 167 163 158 164 166 168
213 218 234 256 272 268 272 247 123 141 147 174 197 207 225 232 233 240 250 252 243 242 256 258 267 275 277 275 265 265 262 260 258 260 271 283 272 254 247 218 214 193 177 166 162 158 163 163 160 158 156 161 169 160
215 224 250 262 255 217 191 185 139 156 177 215 189 216 198 248 227 253 276 202 296 302 309 307 301 298 291 282 271 263 265 259 257 262 265 254 219 205 203 197 185 171 162 159 161 156 156 156 157 160 165 158 157 156
215 239 260 227 203 217 238 173 158 191 161 231 177 197 242 227 230 278 105 97 2 325 316 310 305 294 287 278 276 281 262 248 235 230 217 206 204 193 175 174 176 165 154 149 158 160 158 158 156 154 154 153 151 149
218 227 226 221 189 216 158 346 209 338 125 195 169 235 248 188 141 81 228 264 322 341 342 338 340 335 330 297 293 300 147 175 179 177 179 177 161 149 161 157 158 155 151 150 152 149 146 145 147 148 148 149 151 151
179 226 235 202 162 111 171 191 204 197 222 195 188 236 195 150 117 103 300 327 335 342 341 349 359 3 337 337 18 53 127 149 153 148 149 160 142 138 139 144 144 142 143 142 140 137 138 143 147 149 152 155 155 155
197 11 25 249 290 139 217 236 200 203 186 177 211 350 127 101 86 4 340 319 330 334 338 345 342 346 2 9 9 47 92 117 137 126 125 127 134 139 136 131 127 130 136 134 135 139 142 147 151 155 157 159 161 160
156 192 347 25 5 318 281 278 4 17 55 17 9 339 346 71 43 2 329 352 334 334 337 342 344 342 348 23 60 79 97 116 113 114 122 128 129 128 122 122 123 127 134 136 138 141 144 151 157 160 162 165 167 168
82 13 235 35 69 28 7 61 35 23 347 346 246 37 71 16 357 328 338 345 345 353 0 9 19 34 45 51 81 97 100 99 97 100 106 108 112 115 118 119 123 125 131 135 138 144 152 157 160 164 167 165 164 165
86 352 110 70 87 59 46 38 26 21 331 302 73 95 105 66 18 6 0 5 17 24 35 48 57 73 75 67 75 90 105 109 112 108 105 104 109 109 116 122 124 128 131 133 133 140 147 153 158 161 162 161 160 161
37 21 106 69 46 40 37 70 82 74 75 88 103 109 97 86 51 37 32 35 38 36 41 48 50 60 60 71 75 77 85 92 98 103 107 107 111 115 116 120 122 124 128 132 135 138 140 147 150 155 160 161 162 165
344 69 83 61 94 130 122 107 96 85 79 75 89 90 120 142 53 30 29 36 40 43 53 55 57 56 61 63 67 73 73 79 85 89 95 101 106 111 113 114 114 117 122 129 137 145 150 156 160 162 164 166 166 168
36 65 118 115 138 160 171 164 117 93 96 82 68 80 100 110 54 23 15 26 37 42 43 46 49 51 56 58 62 65 71 78 81 85 91 95 100 102 104 107 109 114 122 130 139 148 154 160 161 164 165 168 169 171
65 50 65 103 106 135 153 156 105 99 75 74 52 50 48 58 76 19 17 19 23 28 31 42 50 54 55 58 63 69 74 78 83 85 87 93 99 105 110 115 121 126 131 137 142 149 155 161 164 165 167 169 171 172